Header for Extended Forecast Station List Page

Search by: ID | Name | Date | Parm | Value | Avg | % Avg
Sort by: ID | Name | Date | Parm | Value | Avg | % Avg

Enter search or view all records.

Click on id for station plot
#IDNameDateParmValueAvg% Avg
0LYDM8KOOTENAI-LIBBY DAM05-26-2015INFLOW (KAF)3524492372
1LEOI1KOOTENAI-AT LEONIA05-26-2015DISCHARGE (KAF)3250438174
2BFEI1KOOTENAI-AT BONNERS FERRY05-26-2015STAGE (FT)MMM
3FCFM8NF FLATHEAD-NEAR COLUMBIA FALLS05-26-2015DISCHARGE (KAF)687113860
4WGCM8MF FLATHEAD-NEAR WEST GLACIER05-26-2015DISCHARGE (KAF)620108757
5HHWM8SF FLATHEAD-HUNGRY HORSE DAM05-26-2015INFLOW (KAF)851121070
6CFMM8FLATHEAD-AT COLUMBIA FALLS05-26-2015DISCHARGE (KAF)2213298374
7DLGM8CLARK FORK-AT DEER LODGE05-26-2015DISCHARGE (KAF)375665
8DRMM8CLARK FORK-NR DRUMMOND05-26-2015DISCHARGE (KAF)83MM
9RCCM8ROCK CREEK-NEAR CLINTON05-26-2015DISCHARGE (KAF)12819865
10BONM8BLACKFOOT-NEAR BONNER05-26-2015DISCHARGE (KAF)29055053
11ABOM8CLARK FORK-ABOVE MISSOULA05-26-2015DISCHARGE (KAF)52199552
12BITM8BITTERROOT-NEAR MISSOULA05-26-2015DISCHARGE (KAF)46087153
13BELM8CLARK FORK-BELOW MISSOULA05-26-2015DISCHARGE (KAF)983190052
14STRM8ST. REGIS-NEAR ST. REGIS05-26-2015DISCHARGE (KAF)3811234
15SRGM8CLARK FORK-AT ST REGIS05-26-2015DISCHARGE (KAF)1270247651
16KERM8FLATHEAD-KERR DAM05-26-2015INFLOW (KAF)2513369968
17NOXM8CLARK FORK-NOXON RAPIDS DAM05-26-2015INFLOW (KAF)3780644359
18CABI1CLARK FORK-CABINET GORGE DAM05-26-2015INFLOW (KAF)4014688758
19PRTI1PRIEST-NEAR PRIEST RIVER05-26-2015DISCHARGE (KAF)31842774
20ALFW1PEND OREILLE-ALBENI FALLS DAM05-26-2015INFLOW (KAF)4323764957
21HOPI1PEND OREILLE-PEND OREILLE LAKE NR HOPE05-26-2015LAKE ELEVATION (FT)MMM
22COEI1COEUR D ALENE-COEUR D ALENE LAKE05-26-2015INFLOW (KAF)32085837
23SPOW1SPOKANE-AT SPOKANE05-26-2015DISCHARGE (KAF)412MM
24LLKW1SPOKANE-AT LONGLAKE05-26-2015INFLOW (KAF)565132243
25SATI1ST MARIES-NEAR SANTA05-26-2015DISCHARGE (KAF)164338
26SJMI1ST JOE-AT ST MARIES05-26-2015STAGE (FT)MMM
27CIBW1COLUMBIA-AT INTL BOUNDARY05-26-2015DISCHARGE (KAF)23297MM
28LAUW1KETTLE-AT LAURIER05-26-2015DISCHARGE (KAF)65593270
29GCDW1COLUMBIA-GRAND COULEE DAM05-26-2015INFLOW (KAF)245643728466
30CHJW1COLUMBIA-CHIEF JOSEPH DAM05-26-2015INFLOW (KAF)208172829174
31TONW1OKANOGAN-NEAR TONASKET05-26-2015DISCHARGE (KAF)539104352
32PATW1METHOW-NEAR PATEROS05-26-2015DISCHARGE (KAF)33958358
33WELW1COLUMBIA-WELLS DAM05-26-2015INFLOW (KAF)217053022572
34CHDW1CHELAN-LAKE CHELAN DAM05-26-2015INFLOW (KAF)30675840
35RRHW1COLUMBIA-ROCKY REACH DAM05-26-2015INFLOW (KAF)221713089072
36ARDW1ENTIAT-NEAR ARDENVOIR05-26-2015DISCHARGE (KAF)6214642
37PESW1WENATCHEE-AT PESHASTIN05-26-2015DISCHARGE (KAF)33497334
38WANW1COLUMBIA-WANAPUM DAM05-26-2015INFLOW (KAF)226703725661
39PRWW1COLUMBIA-PRIEST RAPIDS DAM05-26-2015INFLOW (KAF)226783808060
40KEDW1YAKIMA-KEECHELUS LAKE05-26-2015INFLOW (KAF)105619
41KADW1KACHESS-KACHESS DAM05-26-2015INFLOW (KAF)3496
42EASW1YAKIMA-AT EASTON05-26-2015DISCHARGE (KAF)10783129
43CLUW1CLE ELUM-CLE ELUM LAKE05-26-2015INFLOW (KAF)3023013
44TNAW1TEANAWAY-BELOW FORKS05-26-2015DISCHARGE (KAF)73620
45UMTW1YAKIMA-AT UMTANUM05-26-2015DISCHARGE (KAF)46777560
46BUDW1BUMPING-BUMPING LAKE DAM05-26-2015INFLOW (KAF)177424
47CLFW1NACHES-NEAR CLIFFDEL05-26-2015DISCHARGE (KAF)7122132
48RILW1TIETON-RIMROCK LAKE NEAR RIMROCK05-26-2015INFLOW (KAF)6914249
49NACW1NACHES-NEAR NACHES05-26-2015DISCHARGE (KAF)17732954
50PARW1YAKIMA-NEAR PARKER05-26-2015DISCHARGE (KAF)19022883
51KIOW1YAKIMA-AT KIONA05-26-2015DISCHARGE (KAF)41956075
52IPDI1HENRYS FORK-ISLAND PARK DAM05-26-2015INFLOW (KAF)11118161
53CHEI1FALL RIVER-NEAR CHESTER05-26-2015DISCHARGE (KAF)6520232
54ANTI1HENRYS FORK-AT ST. ANTHONY05-26-2015DISCHARGE (KAF)18144541
55TEAI1TETON-NEAR ST. ANTHONY05-26-2015DISCHARGE (KAF)20030166
56REXI1HENRYS FORK-AT REXBURG05-26-2015DISCHARGE (KAF)21752541
57JLKW4SNAKE-JACKSON LAKE AT DAM05-26-2015INFLOW (KAF)29762148
58JKSW4SNAKE-NEAR JACKSON05-26-2015DISCHARGE (KAF)1243159478
59ALPW4SNAKE-NEAR ALPINE05-26-2015DISCHARGE (KAF)1465196275
60PLDI1SF SNAKE-PALISADES DAM05-26-2015INFLOW (KAF)1947265173
61HEII1SNAKE-NEAR HEISE05-26-2015DISCHARGE (KAF)2519284089
62RIDI1WILLOW CREEK-RIRIE DAM05-26-2015INFLOW (KAF)91371
63SIFI1SNAKE-AB EAGLE ROCK NR IDAHO FALLS05-26-2015DISCHARGE (KAF)1566205976
64SHYI1SNAKE-NEAR SHELLEY05-26-2015DISCHARGE (KAF)1300172775
65SNAI1SNAKE-AT BLACKFOOT05-26-2015DISCHARGE (KAF)735120261
66BFTI1SNAKE-NEAR BLACKFOOT05-26-2015DISCHARGE (KAF)701109564
67PIHI1PORTNEUF-AT POCATELLO05-26-2015DISCHARGE (KAF)103134
68AFRI1SNAKE-AMERICAN FALLS RESERVOIR05-26-2015INFLOW (KAF)1239172072
69MILI1SNAKE-AT MILNER05-26-2015DISCHARGE (KAF)11111299
70HOTI1BRUNEAU-NEAR HOT SPRINGS05-26-2015DISCHARGE (KAF)568764
71SWAI1SNAKE-BELOW SWAN FALLS05-26-2015DISCHARGE (KAF)1507199276
72HWRI1BIG LOST-AT HOWELL RANCH NEAR CHILLY05-26-2015DISCHARGE (KAF)5513640
73MACI1BIG LOST-MACKAY RESERVOIR NEAR MACKAY05-26-2015INFLOW (KAF)4313233
74HALI1BIG WOOD-AT HAILEY05-26-2015DISCHARGE (KAF)7317143
75MAGI1BIG WOOD-MAGIC DAM05-26-2015INFLOW (KAF)1611913
76LWRI1LITTLE WOOD-LITTLE WOOD DAM05-26-2015INFLOW (KAF)104125
77OWYO3OWYHEE-BELOW OWYHEE DAM05-26-2015INFLOW (KAF)248728
78ARAI1SF BOISE-ANDERSON RANCH DAM05-26-2015INFLOW (KAF)9127233
79LUCI1BOISE-LUCKY PEAK DAM05-26-2015INFLOW (KAF)638MM
80BIGI1BOISE-AT GLENWOOD BRIDGE05-26-2015DISCHARGE (KAF)27830890
81PARI1BOISE-NEAR PARMA05-26-2015DISCHARGE (KAF)24927989
82WRMO3MALHEUR-WARM SPRINGS DAM05-26-2015INFLOW (KAF)2552
83BERO3MALHEUR-AGENCY VALLEY DAM05-26-2015INFLOW (KAF)81360
84BULO3BULLY CREEK-BULLY CREEK DAM05-26-2015INFLOW (KAF)10227
85VALO3MALHEUR-NEAR VALE05-26-2015DISCHARGE (KAF)0311
86CSDI1NF PAYETTE-CASCADE DAM05-26-2015INFLOW (KAF)7927429
87DEDI1DEADWOOD-NEAR LOWMAN05-26-2015INFLOW (KAF)228726
88EMMI1PAYETTE-NEAR EMMETT05-26-2015DISCHARGE (KAF)23481329
89WSRI1WEISER-NEAR WEISER05-26-2015DISCHARGE (KAF)6014342
90WEII1SNAKE-AT WEISER05-26-2015DISCHARGE (KAF)2261342766
91BRNI1SNAKE-BROWNLEE DAM05-26-2015INFLOW (KAF)2372361266
92WHBI1SALMON-AT WHITEBIRD05-26-2015DISCHARGE (KAF)1851420444
93TRYO3GRANDE RONDE-TROY05-26-2015DISCHARGE (KAF)26360543
94ANAW1SNAKE-NEAR ANATONE05-26-2015DISCHARGE (KAF)4859884955
95ORFI1CLEARWATER-AT OROFINO05-26-2015DISCHARGE (KAF)1020245242
96DWRI1NF CLEARWATER-DWORSHAK DAM05-26-2015INFLOW (KAF)513128840
97SPDI1CLEARWATER-AT SPALDING05-26-2015DISCHARGE (KAF)2723370374
98LGDW1SNAKE-LOWER GRANITE DAM05-26-2015INFLOW (KAF)75831266860
99LGSW1SNAKE-LITTLE GOOSE DAM05-26-2015INFLOW (KAF)75621267260
100LMNW1SNAKE-LOWER MONUMENTAL DAM05-26-2015INFLOW (KAF)75571269960
101IHDW1SNAKE-ICE HARBOR DAM05-26-2015INFLOW (KAF)75511265460
102TCHW1WALLA WALLA-NEAR TOUCHET05-26-2015DISCHARGE (KAF)62030
103MCDW1COLUMBIA-MCNARY DAM05-26-2015INFLOW (KAF)308175193959
104GIBO3UMATILLA-NEAR GIBBON05-26-2015DISCHARGE (KAF)112154
105PDTO3UMATILLA-AT PENDLETON05-26-2015DISCHARGE (KAF)172862
106MYKO3MCKAY CREEK-NEAR PILOT ROCK05-26-2015DISCHARGE (KAF)22101
107UMAO3UMATILLA-NEAR UMATILLA05-26-2015DISCHARGE (KAF)354938
108MONO3NF JOHN DAY-AT MONUMENT05-26-2015DISCHARGE (KAF)7716746
109SERO3JOHN DAY-AT SERVICE CK05-26-2015DISCHARGE (KAF)10123343
110JDAO3COLUMBIA-JOHN DAY DAM05-26-2015INFLOW (KAF)313255284059
111MODO3DESCHUTES-AT MOODY NR BIGGS05-26-2015DISCHARGE (KAF)1057113493
112TDAO3COLUMBIA-THE DALLES DAM05-26-2015INFLOW (KAF)316854768466
113PITW1KLICKITAT-NEAR PITT05-26-2015DISCHARGE (KAF)21129472
114HODO3HOOD-NEAR TUCKER BRIDGE05-26-2015DISCHARGE (KAF)7412360
115UNDW1WHITE SALMON-NEAR UNDERWOOD05-26-2015DISCHARGE (KAF)15021470
116BONO3COLUMBIA-BONNEVILLE DAM05-26-2015INFLOW (KAF)32144MM